This demonstration page uses our WeatherBlox Daily Observations layout. Learn more.

41.55636, -103.73856

Hourly Observations for December 18, 2019

Temp ( °F °C ) Dew Point ( °F °C ) Humidity (%) Winds ( mph kmh ) Pressure ( in mb ) Visibility ( mi km ) Precip ( " mm )
12:58 am 00:58 Clear 24 -4.2 13 -10.5 62 62 WNW 10 17 30.43 1030 10 16.0934 0 0
1:58 am 01:58 Clear 26 -3.4 14 -10.2 60 60 W 12 19 30.4 1030 10 16.0934 0 0
2:58 am 02:58 Partly Cloudy 28 -2.4 15 -9.7 58 58 W 13 20 30.37 1028 10 16.0934 0 0
3:58 am 03:58 Clear 28 -2.2 15 -9.7 57 57 WNW 15 24 30.34 1027 10 16.0934 0 0
4:58 am 04:58 Clear 24 -4.6 14 -9.9 67 67 WSW 10 17 30.34 1027 10 16.0934 0 0
5:58 am 05:58 Mostly Clear 26 -3.3 13 -10.4 58 58 SW 5 7 30.31 1027 10 16.0934 0 0
6:58 am 06:58 Mostly Cloudy 25 -3.9 13 -10.3 61 61 SW 6 9 30.28 1026 10 16.0934 0 0
7:58 am 07:58 Clear 21 -6 13 -10.6 70 70 SSW 8 13 30.27 1025 10 16.0934 0 0
8:58 am 08:58 Clear 19 -7.1 11 -11.4 72 72 WSW 10 17 30.27 1025 10 16.0934 0 0
9:58 am 09:58 Mostly Cloudy 21 -6 12 -11.2 67 67 SW 12 19 30.26 1025 10 16.0934 0 0
10:58 am 10:58 Clear 20 -6.5 10 -12.2 64 64 SW 10 17 30.26 1025 10 16.0934 0 0
11:58 am 11:58 Partly Cloudy 21 -6 10 -12.5 60 60 W 3 6 30.24 1024 10 16.0934 0 0
12:58 pm 12:58 Mostly Clear 24 -4.4 11 -11.6 58 58 WSW 10 17 30.24 1024 10 16.0934 0 0
1:58 pm 13:58 Clear 24 -4.4 10 -12.2 55 55 WSW 10 17 30.26 1025 10 16.0934 0 0
2:58 pm 14:58 Sunny 27 -3 11 -11.9 51 51 W 13 20 30.24 1024 10 16.0934 0 0
3:58 pm 15:58 Sunny 33 0.8 11 -11.9 38 38 W 13 20 30.21 1023 10 16.0934 0 0
4:58 pm 16:58 Sunny 37 2.8 14 -10 39 39 WNW 13 20 30.23 1024 10 16.0934 0 0
5:58 pm 17:58 Sunny 39 4 20 -6.6 46 46 W 14 22 30.18 1022 10 16.0934 0 0
6:58 pm 18:58 Sunny 43 5.9 20 -6.9 40 40 W 7 11 30.16 1021 10 16.0934 0 0
7:58 pm 19:58 Sunny 42 5.8 19 -7.2 39 39 NNE 6 9 30.16 1022 10 16.0934 0 0
8:58 pm 20:58 Sunny 44 6.4 15 -9.4 32 32 N 6 9 30.15 1021 10 16.0934 0 0
9:58 pm 21:58 Sunny 45 7.1 16 -8.7 32 32 SSW 5 7 30.15 1021 10 16.0934 0 0
10:58 pm 22:58 Sunny 42 5.3 18 -7.6 39 39 SSW 5 7 30.18 1022 10 16.0934 0 0
11:58 pm 23:58 Clear 36 2.4 16 -9 43 43 SSW 6 9 30.18 1022 10 16.0934 0 0

Powered by AerisWeather